Tracking 28790 objects as of 19-Apr-2024
HD Live streaming from Space Station
objects crossing your sky now

ARIANE 2 DEB

Track ARIANE 2 DEB now!


NORAD ID: 26728
Int'l Code: 1989-006F
Perigee: 426.6 km
Apogee: 33,472.9 km
Inclination: 7.8 °
Period: 590.7 minutes
Semi major axis: 23320 km
RCS: 2.6597 m2 (large)
Launch date: January 27, 1989
Source: France (FR)
Launch site: FRENCH GUIANA (FRGUI)

Note: This is SATELLITE DEBRIS
Your satellite tracking list
Your tracking list is empty




NASA's NSSDC Master Catalog

Two Line Element Set (TLE):
1 26728U 89006F   24109.82523367  .00012330  00000-0  35358-1 0  9994
2 26728   7.7890 188.0709 7085153 223.0637  52.3294  2.43774619200643
Source of the keplerian elements: AFSPC